Location: Boiro
(42.6475°N, 8.8834°W)
Time: 11:59:13
(UTC+02:00)

deb Agena D - Pass Details

Date: 07 July 2022
Orbit: 997 x 1025 km, 100.1° (Epoch: 16 August)

Event Time Altitude Azimuth Distance (km) Brightness Sun altitude
Exits shadow 00:53:31 27° 117° (ESE) 1,852 ? -20.2°
Maximum altitude 00:56:25 43° 65° (ENE) 1,408 ? -20.5°
Drops below altitude 10° 01:02:21 10° 357° (N) 2,827 ? -20.9°
Sets 01:04:58 0° 351° (N) 3,781 ? -21.1°
